Temp
35 28 23 29 31 31 29 26 24 28 34 31 29 29 35 39 34 32 32 34 36 36 40 40 40 39 39 39 39 39 39 40 40 38 38 38 38 42 42 43 45 46 47 49
28 23 33 36 34 32 28 19 19 29 32 30 28 28 34 35 34 33 33 32 35 35 36 38 37 37 36 36 37 37 38 38 38 38 39 40 42 43 43 45 45 46 46 47
24 32 38 34 31 27 27 20 19 25 29 28 24 23 28 32 33 34 34 33 32 33 33 34 36 35 34 34 35 36 36 36 37 38 39 39 42 43 42 43 44 47 47 47
27 34 34 31 29 30 18 31 30 27 17 11 25 12 24 28 31 33 33 31 31 31 33 34 34 33 33 34 35 34 35 35 36 37 36 37 36 36 40 42 44 45 48 48
27 30 30 26 32 32 28 31 28 24 8 15 14 9 21 26 27 30 31 31 31 31 31 31 31 33 33 34 32 33 33 33 34 36 37 36 36 38 40 41 42 44 46 47
27 34 32 32 33 33 32 25 23 18 8 4 8 10 18 23 27 28 29 31 31 31 31 30 31 31 32 32 31 31 31 32 34 34 36 36 36 37 37 39 38 41 43 46
26 27 32 33 28 31 26 11 5 6 2 7 2 10 20 26 29 29 30 31 30 30 28 28 27 29 30 31 31 30 30 29 31 32 35 35 36 37 36 37 37 39 45 45
11 17 21 32 29 21 20 14 8 1 3 6 5 8 20 27 30 30 30 29 29 28 29 27 28 27 29 30 30 29 29 28 29 30 32 33 35 36 36 37 37 38 45 46
13 17 30 32 32 28 19 11 21 3 -2 0 5 13 25 27 21 26 26 28 27 27 28 26 27 26 27 28 29 28 28 28 28 29 31 32 34 35 35 36 37 40 46 48
22 14 21 27 30 27 20 24 12 7 1 -4 2 -3 14 16 20 21 23 24 25 25 25 24 24 25 27 28 28 28 28 27 27 28 30 33 34 35 35 35 36 40 44 45
19 14 18 27 16 15 20 10 12 10 12 2 -2 8 14 18 17 18 20 23 22 22 21 21 21 23 25 27 27 27 28 27 27 28 29 31 32 34 35 34 37 40 41 43
28 21 10 18 25 27 22 14 19 10 5 6 9 13 17 15 10 5 17 21 22 18 19 17 18 21 24 24 25 25 27 26 28 27 29 30 32 34 34 35 37 39 40 41
28 13 6 18 22 24 18 23 23 16 18 7 5 16 10 4 11 12 13 21 21 19 18 12 16 18 19 21 23 24 25 26 27 27 28 30 31 32 34 35 37 38 39 39
34 23 16 16 16 11 15 22 25 23 7 15 17 23 29 31 28 24 14 17 17 13 13 6 10 12 15 18 20 23 24 25 26 26 26 28 30 32 33 35 35 36 37 36
27 11 17 17 18 13 20 21 22 18 23 15 24 14 26 30 28 28 12 11 11 13 13 4 4 9 10 16 19 22 23 24 25 25 26 28 30 31 33 33 34 34 34 34
27 11 11 6 22 22 17 22 23 21 23 21 22 21 31 33 28 15 18 8 13 10 13 4 5 9 10 14 14 19 22 24 24 25 26 28 29 30 31 32 32 32 33 33
22 16 11 7 13 11 13 20 20 15 11 20 15 24 26 24 15 9 16 8 14 13 12 5 8 8 7 10 12 17 21 23 24 25 27 28 29 29 30 30 31 31 31 32
20 18 16 7 5 1 24 25 21 18 22 17 17 20 14 20 14 16 15 12 15 11 10 5 7 4 5 5 12 16 23 24 24 24 26 28 28 28 29 30 30 30 31 31
27 22 14 5 -8 13 26 24 21 21 24 26 23 27 27 15 21 24 17 14 16 12 11 7 6 6 6 9 14 15 20 24 24 24 26 28 27 27 27 28 28 29 30 30
25 25 19 -0 3 0 25 24 26 26 18 29 27 27 27 25 21 25 26 24 23 23 22 23 22 20 20 20 23 21 18 22 22 23 26 28 28 27 27 27 27 28 28 28
13 14 15 9 9 10 25 28 28 14 26 30 28 29 28 26 29 29 26 24 25 24 24 23 22 21 20 20 22 22 20 18 21 24 27 27 27 28 28 27 28 27 27 27
12 9 9 11 6 6 27 24 25 33 32 32 31 31 30 29 29 27 26 25 24 23 23 23 21 21 19 19 20 20 18 18 21 24 25 25 25 27 27 26 27 27 26 25
14 19 14 17 18 28 27 30 35 34 34 33 32 35 32 30 29 27 25 24 22 22 23 20 19 18 16 15 15 17 15 16 18 21 21 22 23 25 26 24 24 24 24 23
16 19 17 18 27 27 30 32 32 33 32 36 34 34 32 30 26 25 21 19 18 16 17 11 12 12 13 12 14 11 11 13 15 15 17 20 21 22 22 24 23 22 20 20
21 22 17 17 28 24 31 32 36 35 32 30 30 30 31 30 28 26 23 19 18 17 12 10 12 11 11 9 8 4 9 10 22 16 15 16 17 18 20 22 20 21 21 21
21 25 23 27 38 34 37 39 28 30 32 32 29 28 25 27 29 24 25 21 19 17 15 12 12 11 10 9 9 8 7 10 17 15 15 14 15 14 17 17 24 31 30 30
MSLP
1022.11 1022.57 1022.83 1023.32 1023.54 1024.00 1024.62 1025.20 1025.30 1024.36 1023.79 1023.53 1022.67 1021.60 1019.68 1019.20 1019.53 1019.71 1019.99 1019.94 1019.98 1019.97 1019.91 1020.00 1019.98 1019.99 1019.71 1019.60 1019.54 1019.19 1018.77 1018.37 1018.17 1017.62 1016.87 1016.12 1015.55 1014.69 1014.28 1013.97 1013.42 1012.94 1012.53 1012.04
1023.17 1023.26 1023.14 1023.28 1023.68 1024.14 1024.84 1025.57 1025.62 1024.89 1024.57 1024.35 1023.22 1021.58 1019.56 1019.32 1019.23 1019.34 1019.70 1019.90 1019.96 1020.20 1020.17 1020.08 1020.04 1019.76 1019.76 1019.68 1019.61 1019.26 1018.99 1018.62 1018.08 1017.32 1016.48 1015.89 1015.15 1014.45 1014.06 1013.21 1012.65 1012.16 1011.81 1011.45
1024.15 1023.76 1023.34 1023.54 1024.04 1024.61 1025.12 1025.81 1025.94 1026.15 1025.62 1025.08 1024.50 1022.05 1020.40 1019.47 1019.23 1019.33 1019.59 1019.83 1020.12 1020.45 1020.38 1020.08 1020.03 1020.11 1020.11 1019.76 1019.40 1018.93 1018.62 1018.29 1017.63 1016.91 1016.18 1015.45 1014.69 1013.90 1013.35 1012.71 1011.80 1011.13 1010.77 1010.49
1024.61 1023.91 1023.73 1023.98 1024.43 1024.95 1025.66 1025.61 1026.31 1026.86 1027.33 1027.62 1026.69 1025.17 1021.96 1020.35 1019.78 1019.67 1019.69 1019.95 1020.20 1020.35 1020.14 1020.17 1020.05 1020.06 1019.78 1019.31 1018.90 1018.49 1018.06 1017.67 1017.06 1016.45 1015.95 1015.15 1014.27 1013.48 1012.95 1012.33 1011.55 1010.76 1010.02 1009.51
1024.58 1024.27 1024.14 1024.41 1024.47 1025.07 1025.79 1026.24 1027.03 1028.08 1029.21 1029.45 1028.75 1028.21 1022.41 1021.09 1020.24 1019.65 1019.52 1020.01 1020.19 1020.26 1020.35 1020.17 1020.06 1019.79 1019.24 1018.76 1018.44 1018.01 1017.71 1017.26 1016.65 1015.98 1015.48 1014.85 1013.82 1013.07 1012.25 1011.80 1011.04 1010.15 1009.20 1008.61
1024.97 1024.59 1024.40 1024.39 1024.80 1025.40 1026.06 1027.08 1028.28 1029.46 1030.58 1031.38 1030.08 1028.95 1023.65 1021.72 1020.03 1019.63 1019.38 1019.73 1019.97 1019.99 1019.89 1019.85 1019.59 1019.23 1018.77 1018.56 1018.29 1017.87 1017.44 1016.75 1016.16 1015.64 1014.87 1014.21 1013.44 1012.51 1011.73 1011.24 1010.61 1009.50 1008.42 1007.32
1025.59 1025.13 1024.75 1024.72 1025.39 1026.10 1026.99 1028.99 1030.40 1031.53 1032.34 1032.05 1030.88 1029.78 1023.91 1021.02 1019.99 1019.67 1019.63 1019.67 1019.82 1019.89 1019.84 1019.47 1019.26 1018.94 1018.81 1018.37 1017.95 1017.51 1016.89 1016.20 1015.71 1015.37 1014.29 1013.81 1012.99 1012.12 1011.41 1010.91 1010.20 1008.80 1007.04 1006.21
1027.33 1026.07 1025.59 1025.46 1025.90 1026.84 1028.20 1029.43 1031.46 1032.97 1034.39 1032.99 1031.40 1028.96 1022.92 1020.76 1020.01 1019.59 1019.63 1019.76 1019.85 1019.78 1019.38 1019.23 1019.19 1019.10 1018.65 1018.05 1017.45 1016.97 1016.44 1015.82 1015.34 1014.67 1013.84 1013.31 1012.51 1011.58 1010.95 1010.55 1009.71 1008.31 1006.24 1005.42
1027.51 1026.87 1026.28 1026.15 1026.36 1027.46 1029.03 1030.04 1030.85 1032.74 1034.82 1034.12 1030.90 1027.40 1023.42 1020.93 1020.49 1020.23 1020.21 1020.39 1019.99 1019.72 1019.32 1019.35 1019.11 1018.89 1018.33 1017.88 1017.24 1016.77 1016.28 1015.72 1015.00 1014.19 1013.41 1012.58 1011.90 1011.14 1010.57 1009.84 1009.07 1007.72 1006.01 1004.96
1027.35 1027.75 1027.22 1026.97 1027.04 1028.07 1028.74 1030.00 1031.19 1032.78 1034.13 1033.79 1030.79 1029.11 1025.25 1022.56 1021.70 1020.90 1021.01 1020.58 1020.03 1019.71 1019.39 1019.36 1019.23 1018.95 1018.32 1017.77 1017.18 1016.51 1015.98 1015.35 1014.57 1013.82 1013.09 1012.11 1011.41 1010.71 1010.03 1009.27 1008.27 1007.19 1006.18 1005.36
1027.32 1028.10 1028.00 1027.57 1027.55 1027.78 1029.23 1029.96 1031.14 1032.17 1032.67 1032.89 1031.54 1026.32 1023.05 1022.39 1022.02 1021.94 1021.40 1020.60 1020.14 1020.00 1019.79 1019.60 1019.56 1018.95 1018.44 1017.81 1017.16 1016.41 1015.66 1015.02 1014.22 1013.55 1012.83 1011.91 1010.98 1010.20 1009.32 1008.59 1007.86 1007.01 1006.34 1005.56
1026.84 1027.88 1028.41 1027.31 1027.04 1027.15 1027.87 1028.57 1029.49 1030.67 1031.38 1031.34 1030.51 1024.23 1021.19 1021.58 1021.96 1022.01 1021.52 1020.92 1020.27 1020.12 1019.87 1019.90 1019.74 1019.23 1018.67 1018.05 1017.12 1016.22 1015.53 1014.79 1013.99 1013.28 1012.47 1011.56 1010.59 1009.79 1008.88 1008.07 1007.64 1007.05 1006.20 1005.23
1026.42 1027.91 1028.41 1027.65 1027.66 1027.42 1027.62 1027.81 1028.15 1028.78 1029.13 1029.03 1028.68 1023.02 1020.99 1021.43 1021.49 1021.34 1021.65 1020.79 1020.44 1020.31 1019.96 1020.06 1020.10 1019.75 1019.12 1018.17 1017.02 1016.16 1015.40 1014.61 1013.73 1012.91 1012.12 1011.20 1010.31 1009.40 1008.53 1007.80 1007.15 1006.63 1005.95 1005.36
1025.97 1027.34 1028.15 1028.03 1027.84 1027.73 1027.48 1026.85 1026.91 1027.38 1028.14 1026.55 1023.98 1021.18 1019.96 1019.60 1020.88 1020.56 1021.19 1020.89 1020.61 1020.81 1020.36 1020.54 1020.42 1020.16 1019.21 1018.23 1017.23 1016.18 1015.31 1014.49 1013.53 1012.65 1011.79 1010.90 1010.04 1009.21 1008.32 1007.68 1007.11 1006.59 1006.24 1006.27
1026.51 1028.04 1028.40 1028.02 1027.63 1027.60 1026.51 1025.87 1025.74 1025.80 1024.77 1025.03 1020.54 1021.88 1019.27 1019.11 1019.87 1020.18 1020.34 1020.44 1020.55 1020.63 1020.58 1020.77 1020.66 1020.46 1019.31 1018.17 1017.20 1016.29 1015.37 1014.47 1013.52 1012.61 1011.77 1010.89 1010.07 1009.31 1008.57 1007.94 1007.52 1007.15 1006.89 1006.61
1026.86 1028.12 1029.01 1028.70 1027.30 1026.88 1025.64 1024.07 1023.98 1023.91 1023.60 1022.76 1021.90 1021.16 1017.43 1018.56 1019.37 1019.90 1020.24 1020.63 1020.71 1020.43 1020.54 1020.64 1020.68 1020.31 1019.40 1018.47 1017.70 1016.69 1015.59 1014.63 1013.72 1012.75 1011.89 1011.08 1010.35 1009.67 1009.10 1008.52 1008.10 1007.77 1007.52 1007.34
1027.07 1028.22 1029.51 1029.10 1028.21 1026.88 1024.34 1020.88 1021.24 1021.59 1021.56 1021.54 1021.56 1018.08 1017.98 1018.65 1019.32 1019.44 1019.42 1019.76 1019.90 1020.00 1020.11 1020.34 1020.49 1020.18 1019.27 1018.70 1017.92 1017.01 1015.86 1014.92 1014.05 1013.17 1012.19 1011.43 1010.74 1010.15 1009.68 1009.23 1008.77 1008.48 1008.32 1008.06
1026.83 1028.10 1029.25 1029.70 1028.79 1026.21 1020.82 1019.92 1019.76 1020.03 1019.47 1019.43 1018.54 1017.45 1018.03 1018.24 1018.33 1018.20 1018.11 1018.66 1018.86 1019.40 1019.40 1019.89 1019.81 1019.52 1019.00 1018.37 1017.66 1017.00 1015.97 1015.13 1014.34 1013.52 1012.68 1011.97 1011.31 1010.78 1010.37 1009.92 1009.53 1009.25 1008.91 1008.67
1026.27 1027.52 1029.01 1030.11 1029.42 1024.44 1020.08 1018.90 1018.86 1018.88 1017.17 1016.20 1016.61 1016.29 1016.64 1017.92 1017.92 1016.69 1016.64 1016.99 1017.37 1018.15 1018.39 1018.58 1018.94 1018.94 1018.44 1018.08 1017.51 1016.98 1016.22 1015.40 1014.67 1013.99 1013.27 1012.67 1012.11 1011.66 1011.23 1010.81 1010.48 1010.18 1009.94 1009.84
1026.87 1027.09 1028.11 1030.02 1028.76 1024.86 1019.47 1018.07 1017.70 1017.88 1016.53 1014.53 1015.21 1015.59 1016.29 1016.99 1017.14 1015.76 1015.26 1016.01 1016.52 1017.14 1017.33 1017.67 1017.97 1018.01 1017.97 1017.73 1017.38 1016.96 1016.63 1015.95 1015.33 1014.62 1013.95 1013.33 1012.80 1012.41 1012.10 1011.79 1011.47 1011.25 1011.00 1010.86
1027.19 1027.47 1027.15 1027.88 1026.72 1022.75 1018.44 1017.65 1017.46 1017.03 1014.81 1013.63 1014.03 1014.01 1014.92 1015.63 1015.10 1014.72 1015.00 1015.38 1015.88 1016.49 1016.78 1017.11 1017.49 1017.71 1017.72 1017.63 1017.40 1016.99 1016.79 1016.50 1015.99 1015.18 1014.43 1013.95 1013.45 1013.13 1012.86 1012.63 1012.36 1012.17 1011.98 1011.71
1024.95 1025.92 1026.10 1025.95 1024.98 1021.03 1016.22 1017.16 1016.45 1013.46 1012.85 1012.84 1013.05 1013.38 1014.05 1014.07 1014.15 1014.50 1014.90 1015.44 1015.68 1016.20 1016.55 1016.84 1017.28 1017.47 1017.47 1017.60 1017.53 1017.29 1016.98 1016.85 1016.18 1015.51 1015.09 1014.72 1014.31 1013.87 1013.60 1013.38 1013.23 1013.02 1012.89 1012.79
1023.24 1021.55 1022.03 1021.20 1018.43 1015.77 1015.27 1013.67 1012.97 1012.77 1012.66 1012.38 1012.48 1012.43 1012.93 1013.47 1013.72 1013.90 1014.46 1014.95 1015.41 1015.63 1016.29 1016.74 1017.10 1017.44 1017.51 1017.67 1017.76 1017.73 1017.44 1016.98 1016.55 1016.08 1015.86 1015.54 1015.16 1014.80 1014.49 1014.24 1014.15 1014.03 1013.99 1013.94
1020.75 1019.96 1019.72 1019.09 1014.38 1014.88 1013.97 1013.19 1012.68 1012.53 1012.28 1011.76 1011.81 1011.96 1012.41 1012.87 1013.03 1013.45 1014.05 1014.60 1015.19 1015.35 1015.96 1016.49 1017.05 1017.46 1017.88 1017.59 1017.96 1017.97 1017.83 1017.28 1016.90 1016.64 1016.47 1016.20 1015.95 1015.75 1015.42 1015.14 1015.14 1015.16 1015.19 1015.08
1017.93 1018.40 1017.68 1015.67 1012.99 1014.05 1012.35 1011.86 1011.09 1011.33 1011.31 1011.33 1011.22 1011.49 1011.83 1012.20 1012.49 1012.78 1013.23 1013.87 1014.44 1014.80 1015.40 1016.00 1016.63 1016.99 1017.59 1017.70 1017.80 1018.26 1017.98 1017.75 1017.24 1017.09 1017.13 1017.03 1016.84 1016.70 1016.50 1016.18 1016.00 1015.92 1016.02 1015.91
1015.82 1015.14 1015.13 1012.57 1010.63 1011.49 1010.46 1009.47 1010.03 1010.53 1010.34 1010.21 1010.66 1010.83 1010.85 1011.38 1011.68 1012.05 1012.41 1012.71 1013.50 1014.15 1014.69 1015.53 1016.06 1016.53 1017.08 1017.64 1017.73 1017.87 1017.93 1017.79 1017.81 1017.72 1017.53 1017.57 1017.59 1017.42 1017.22 1017.04 1016.66 1016.45 1016.40 1016.35
Wind_Speed
5 6 2 4 3 4 4 2 4 6 5 5 7 14 23 17 6 8 9 8 7 4 4 5 4 6 6 7 10 11 13 13 10 9 9 9 8 9 9 9 13 13 11 13
7 1 3 3 3 3 3 2 6 6 2 4 6 22 22 11 7 5 8 8 5 5 7 7 7 6 8 10 10 10 12 13 11 9 8 9 10 11 12 12 13 14 14 13
5 1 3 2 1 2 3 5 3 4 6 3 9 10 6 2 2 3 3 4 2 5 7 7 9 7 8 9 11 12 12 13 12 13 10 8 10 10 11 11 11 10 12 13
3 3 2 2 2 4 2 3 1 3 6 2 6 9 7 4 6 5 7 6 6 7 6 5 9 9 10 11 10 11 12 12 12 13 11 13 11 12 10 11 12 13 15 14
5 2 2 1 3 4 4 2 1 3 4 4 5 4 11 3 7 9 10 8 7 7 7 8 9 9 11 11 11 11 11 12 12 12 11 13 12 10 9 10 16 17 15 17
4 3 2 2 2 1 2 4 6 4 4 4 4 5 9 5 6 5 4 7 7 8 8 8 8 7 10 10 10 10 11 12 12 12 13 15 16 13 11 13 14 13 13 12
5 2 1 1 2 3 6 7 5 8 6 6 3 2 15 9 6 7 9 8 8 8 9 8 8 9 11 12 12 11 12 13 12 13 12 14 14 13 14 14 13 15 14 9
4 8 2 1 2 5 2 6 7 6 3 6 4 9 11 6 7 8 7 7 8 10 8 8 8 8 10 13 13 13 14 14 13 13 12 12 13 8 9 12 12 12 11 10
4 6 1 3 3 4 3 2 3 8 1 4 4 10 14 3 7 7 10 8 11 10 9 7 8 8 9 11 14 13 14 14 13 12 12 12 11 11 11 13 13 12 10 6
3 4 1 3 3 5 5 3 5 4 2 7 6 8 9 8 10 7 9 13 12 8 8 7 6 8 8 11 12 12 12 13 13 13 11 11 13 12 12 9 12 13 11 7
4 5 6 2 4 8 2 2 5 4 4 6 5 10 11 11 8 9 10 11 10 10 9 7 7 7 9 10 11 12 12 12 13 11 13 12 11 11 12 8 9 10 11 7
3 4 3 10 2 4 5 6 6 6 7 4 2 15 6 8 6 4 12 11 10 7 9 6 7 7 9 9 10 11 12 12 11 11 12 12 11 10 9 8 8 8 8 5
6 1 4 9 5 3 3 5 4 2 2 8 5 14 3 4 7 7 10 13 11 8 10 4 6 7 8 9 10 11 11 12 12 11 11 12 10 9 8 7 7 6 4 4
5 4 8 8 8 4 3 5 9 7 4 6 17 27 29 24 17 14 9 11 12 8 9 4 6 7 7 8 8 11 12 11 11 11 10 10 9 8 7 6 6 6 6 5
4 5 2 5 7 6 14 18 12 15 17 13 24 13 26 22 18 17 7 7 9 9 9 4 5 8 6 7 9 10 10 11 11 11 10 9 8 7 6 5 5 5 6 6
3 3 2 5 7 6 12 20 16 21 22 20 24 28 34 27 16 9 11 5 9 8 8 5 6 8 7 7 7 10 10 11 11 10 9 8 8 7 7 6 6 6 7 7
6 5 2 7 5 8 11 12 10 5 4 12 17 28 11 14 8 8 10 6 9 9 8 5 8 7 7 6 6 9 10 9 9 9 10 9 8 8 7 6 7 8 7 8
6 5 2 5 5 3 9 3 6 10 10 17 10 15 8 11 8 12 10 8 9 7 7 5 6 6 6 4 6 7 8 8 8 9 9 9 9 9 8 8 9 9 8 9
3 5 2 2 4 11 11 2 5 6 11 14 20 19 16 1 5 9 4 7 7 6 5 5 4 5 4 4 6 5 7 7 8 10 10 9 8 9 9 10 9 8 7 8
4 1 4 3 3 9 5 1 3 4 7 3 9 10 7 3 2 7 4 4 6 7 4 4 4 3 3 4 5 3 5 6 8 9 8 8 8 8 9 9 9 8 8 9
4 2 12 5 6 12 16 7 2 6 9 3 4 8 9 7 7 2 4 4 5 5 6 4 3 3 2 3 3 3 3 5 7 7 7 8 8 8 8 8 8 8 9 10
12 10 6 4 5 13 11 7 10 9 3 3 4 5 7 8 5 5 6 6 7 8 6 6 4 3 1 1 1 1 3 4 6 5 5 6 7 6 6 8 8 9 8 9
4 11 10 14 15 5 9 7 12 2 4 4 4 8 9 8 8 8 8 9 9 9 6 4 5 4 3 1 1 2 3 5 5 4 5 6 7 7 7 7 7 6 7 7
6 5 4 3 12 20 16 15 12 9 13 17 11 9 7 9 9 9 7 7 7 7 8 4 5 5 4 4 2 2 2 5 1 4 5 4 5 6 6 6 5 5 5 5
7 10 6 10 20 7 18 16 19 15 13 12 11 11 14 10 11 11 8 9 9 8 5 6 7 6 6 5 4 3 2 2 1 3 3 4 3 4 4 5 3 5 4 5
8 11 9 16 24 10 15 15 7 11 14 13 12 9 11 11 15 9 11 8 8 10 7 6 7 5 6 6 5 4 3 2 3 3 2 2 2 3 3 3 6 13 12 11
Wind_Direction
1 68 161 168 145 132 136 213 248 259 284 304 252 277 283 297 267 263 246 221 214 262 266 282 301 306 325 318 320 317 316 316 308 302 299 296 286 289 290 283 277 274 271 267
20 125 189 134 135 129 121 129 270 283 308 338 298 291 289 280 259 220 198 205 206 305 317 316 318 333 328 315 309 307 302 301 299 296 291 288 292 290 290 287 276 268 268 263
136 54 127 105 56 84 219 178 239 247 330 282 320 296 325 337 269 228 205 188 230 268 300 318 325 323 302 301 305 306 304 300 299 298 293 293 287 282 288 290 284 270 259 258
197 323 146 73 258 127 302 174 318 302 44 291 33 284 300 301 290 228 219 230 274 313 314 296 312 301 302 298 297 300 300 298 296 296 290 286 294 290 284 283 284 282 271 266
260 168 170 120 233 154 210 19 358 87 92 39 338 62 272 332 281 250 233 237 270 281 277 290 286 282 292 303 304 303 296 294 293 290 295 293 285 282 286 285 284 280 275 268
229 295 178 198 44 310 19 55 39 54 88 28 257 116 278 234 217 287 267 230 269 290 295 274 268 283 304 302 303 300 295 296 304 296 294 290 290 289 292 291 290 279 274 263
329 264 354 130 74 25 61 49 335 354 9 225 310 323 248 261 250 229 249 253 271 275 272 284 301 315 305 307 306 307 313 307 306 300 296 296 290 291 289 288 286 285 273 246
116 329 102 19 147 173 68 142 149 236 274 272 352 240 252 235 277 252 247 259 279 282 283 284 294 291 298 309 311 312 311 307 307 303 299 291 288 296 291 281 281 287 269 253
121 285 319 38 78 94 257 54 168 97 87 26 243 288 288 296 288 265 259 265 267 273 282 289 295 298 303 310 308 308 306 302 302 304 301 295 296 291 289 281 286 290 296 304
184 349 294 279 96 28 134 156 50 8 327 291 284 276 242 293 274 282 265 251 262 273 293 296 307 299 305 302 302 304 301 302 305 303 300 297 298 287 288 282 293 295 304 303
125 102 286 56 195 178 115 9 53 121 155 191 293 256 214 235 236 258 274 269 257 276 283 297 303 296 295 298 301 306 312 312 312 309 308 298 291 291 291 287 293 299 299 314
188 132 243 228 156 157 164 184 155 135 256 232 191 268 219 229 250 206 269 270 273 260 281 286 294 310 303 299 301 313 316 313 311 310 310 301 296 290 289 294 290 285 273 326
176 314 360 338 14 11 204 195 170 137 109 204 153 264 307 294 302 244 258 281 280 286 299 298 314 304 299 306 314 313 316 315 314 316 315 311 303 298 297 294 303 310 328 33
158 172 183 205 214 145 225 204 201 177 172 229 226 273 286 287 293 295 265 262 274 287 282 305 298 303 294 295 306 317 320 318 318 319 316 313 315 312 312 321 332 354 26 32
127 206 267 258 251 204 255 255 224 209 224 216 269 251 266 280 288 293 280 284 292 285 289 287 294 290 297 317 325 326 322 323 324 324 324 324 324 327 335 355 2 14 35 40
175 256 102 286 279 289 276 265 244 236 244 252 259 276 265 278 296 286 276 286 280 277 274 281 288 295 313 314 317 321 323 331 326 328 333 337 346 358 3 16 29 37 47 53
160 149 77 267 342 320 297 255 217 191 222 214 227 239 283 286 268 258 273 234 256 264 269 282 278 279 288 308 308 318 320 324 334 341 348 358 1 15 17 25 42 43 48 59
144 133 150 271 357 313 242 221 184 196 233 213 249 254 224 244 274 268 236 223 246 244 262 257 260 273 286 311 309 311 327 338 343 355 356 7 15 20 22 33 38 41 47 48
146 136 160 239 198 297 285 166 144 169 283 211 226 247 255 253 278 289 220 204 224 215 230 209 229 243 297 299 301 323 338 342 1 359 2 8 16 26 29 35 36 33 49 55
149 146 150 119 205 237 249 153 168 160 289 253 196 244 250 160 334 260 174 195 207 212 203 205 229 245 319 336 321 347 348 347 2 347 357 10 19 30 37 34 37 37 48 52
141 181 212 197 247 279 252 216 137 82 246 161 214 200 176 192 213 268 137 172 192 200 203 180 198 237 295 332 331 359 353 5 329 337 6 16 15 28 31 41 38 42 46 48
166 159 194 156 204 275 178 82 176 220 241 224 215 226 221 234 270 249 220 207 196 202 203 188 199 231 265 5 353 350 358 322 324 351 20 24 20 24 25 37 36 39 40 45
236 189 185 188 207 244 206 224 223 292 261 264 219 231 216 228 231 223 227 206 212 198 207 188 185 212 274 314 355 176 302 327 343 28 33 21 26 28 28 36 35 39 37 42
245 168 235 85 224 239 242 252 259 240 244 261 256 246 201 224 226 230 223 218 206 203 199 174 161 212 232 248 177 201 281 309 317 56 39 34 47 47 36 44 44 53 43 45
179 145 185 261 275 301 264 246 254 261 252 253 253 232 237 233 241 221 221 206 207 206 178 179 190 204 219 206 234 208 209 293 94 68 60 43 39 39 51 59 59 63 57 72
178 195 208 255 263 232 275 272 203 226 241 239 234 249 237 216 234 212 232 200 188 197 169 187 208 194 219 188 217 223 193 192 146 110 65 80 70 24 35 35 88 83 86 91